Weather History for K2V5 - December, 2013

Change the Weather History Date:

Tuesday, December 17, 2013

  Actual Average (KHEQ) Record (KHEQ)
Temperature  
Mean Temperature 42 °F -  
Max Temperature 61 °F 46 °F 59 °F (2013)
Min Temperature 23 °F 16 °F 26 °F (2013)
Degree Days  
Heating Degree Days 23    
Moisture  
Dew Point 16 °F    
Average Humidity 40    
Maximum Humidity 70    
Minimum Humidity 15    
Precipitation  
Precipitation 0.00 in - - ()
Sea Level Pressure  
Sea Level Pressure 30.20 in    
Wind  
Wind Speed 8 mph (SW)    
Max Wind Speed 18 mph    
Max Gust Speed 23 mph    
Visibility 10 miles    
Events      
Averages and records for this station are not official NWS values.
T = Trace of Precipitation, MM = Missing Value Source: NWS Daily Summary

Daily Weather History Graph

Daily Weather History Graph

Search for Another Location

Airport or City:

Trip Planner

Search our weather history database for the weather conditions in past years. The results will help you decide how hot, cold, wet, or windy it might be!

Date:

Astronomy

Dec. 17, 2013 Rise Set
Actual Time 7:05 AM MST 4:25 PM MST
Civil Twilight 6:34 AM MST 4:55 PM MST
Nautical Twilight 6:00 AM MST 5:29 PM MST
Astronomical Twilight 5:27 AM MST 6:02 PM MST
Moon 5:06 PM MST (12/17) 7:03 AM MST (12/17)
Length of Visible Light 10h 20m
Length of Day
9h 19m
Full, 100% of the Moon is Illuminated
Dec 17
Full
Dec 25
Last Quarter
Jan 1
New
Jan 7
First Quarter
Jan 15
Full

Hourly Weather History & Observations

Time (MST) Temp. Windchill Dew Point Humidity Pressure Visibility Wind Dir Wind Speed Gust Speed Precip Events Conditions
12:15 AM 31.3 °F 23.9 °F 14.4 °F 50% 30.23 in 10.0 mi SW 8.1 mph - N/A   Clear
12:35 AM 32.4 °F 29.1 °F 16.2 °F 51% 30.23 in 10.0 mi West 3.5 mph - N/A   Clear
12:55 AM 31.5 °F 25.8 °F 15.8 °F 52% 30.23 in 10.0 mi WSW 5.8 mph - N/A   Clear
1:15 AM 29.8 °F 23.0 °F 16.0 °F 56% 30.23 in 10.0 mi WSW 6.9 mph - N/A   Clear
1:35 AM 29.7 °F - 16.0 °F 57% 30.23 in 10.0 mi North - - N/A   Clear
1:55 AM 27.5 °F 21.1 °F 15.4 °F 61% 30.24 in 10.0 mi WSW 5.8 mph - N/A   Clear
2:15 AM 29.3 °F 23.2 °F 16.0 °F 58% 30.25 in 10.0 mi WSW 5.8 mph - N/A   Clear
2:35 AM 29.5 °F 21.8 °F 16.0 °F 57% 30.25 in 10.0 mi WSW 8.1 mph - N/A   Clear
2:55 AM 26.6 °F 21.2 °F 15.6 °F 63% 30.26 in 10.0 mi WSW 4.6 mph - N/A   Clear
3:15 AM 27.0 °F 20.5 °F 15.6 °F 62% 30.26 in 10.0 mi WSW 5.8 mph - N/A   Clear
3:35 AM 28.4 °F 21.2 °F 16.0 °F 60% 30.25 in 10.0 mi WSW 6.9 mph - N/A   Clear
3:55 AM 27.5 °F 19.3 °F 15.8 °F 61% 30.25 in 10.0 mi WSW 8.1 mph - N/A   Clear
4:15 AM 28.2 °F 20.2 °F 15.6 °F 59% 30.26 in 10.0 mi West 8.1 mph - N/A   Clear
4:35 AM 24.8 °F 16.9 °F 15.3 °F 67% 30.27 in 10.0 mi WSW 6.9 mph - N/A   Clear
4:55 AM 25.3 °F 19.7 °F 15.3 °F 66% 30.28 in 10.0 mi WSW 4.6 mph - N/A   Clear
5:15 AM 25.2 °F 19.5 °F 15.3 °F 66% 30.28 in 10.0 mi West 4.6 mph - N/A   Clear
5:35 AM 25.2 °F 20.9 °F 15.3 °F 66% 30.28 in 10.0 mi SW 3.5 mph - N/A   Clear
5:55 AM 23.9 °F 16.8 °F 15.1 °F 69% 30.28 in 10.0 mi SW 5.8 mph - N/A   Clear
6:15 AM 24.4 °F 20.1 °F 15.3 °F 68% 30.28 in 10.0 mi WNW 3.5 mph - N/A   Clear
6:35 AM 25.2 °F 17.3 °F 15.6 °F 67% 30.29 in 10.0 mi WSW 6.9 mph - N/A   Clear
6:55 AM 29.7 °F 22.8 °F 18.1 °F 62% 30.30 in 10.0 mi West 6.9 mph - N/A   Clear
7:15 AM 27.0 °F 18.7 °F 17.2 °F 67% 30.32 in 10.0 mi WSW 8.1 mph - N/A   Clear
7:35 AM 25.7 °F 19.0 °F 17.2 °F 70% 30.32 in 10.0 mi WSW 5.8 mph - N/A   Clear
7:55 AM 27.9 °F 20.6 °F 18.0 °F 66% 30.33 in 10.0 mi WSW 6.9 mph - N/A   Clear
8:15 AM 30.2 °F 24.3 °F 18.1 °F 61% 30.33 in 10.0 mi WSW 5.8 mph - N/A   Clear
8:35 AM 32.0 °F 27.5 °F 18.3 °F 57% 30.33 in 10.0 mi WSW 4.6 mph - N/A   Clear
8:55 AM 34.5 °F 30.4 °F 18.7 °F 52% 30.34 in 10.0 mi SW 4.6 mph - N/A   Clear
9:15 AM 36.5 °F 32.7 °F 19.0 °F 49% 30.34 in 10.0 mi SW 4.6 mph - N/A   Clear
9:35 AM 40.3 °F 37.1 °F 19.4 °F 43% 30.34 in 10.0 mi SW 4.6 mph - N/A   Clear
9:55 AM 45.1 °F 43.7 °F 19.4 °F 36% 30.34 in 10.0 mi West 3.5 mph - N/A   Clear
10:15 AM 48.7 °F - 18.9 °F 31% 30.33 in 10.0 mi WSW 3.5 mph - N/A   Clear
10:35 AM 51.1 °F - 18.5 °F 28% 30.33 in 10.0 mi WSW 5.8 mph - N/A   Clear
10:55 AM 50.9 °F - 18.5 °F 28% 30.31 in 10.0 mi WSW 3.5 mph - N/A   Clear
11:15 AM 53.2 °F - 18.5 °F 26% 30.30 in 10.0 mi West 3.5 mph - N/A   Clear
11:35 AM 54.0 °F - 17.6 °F 24% 30.28 in 10.0 mi Calm Calm - N/A   Clear
11:55 AM 54.9 °F - 17.1 °F 23% 30.27 in 10.0 mi West 3.5 mph - N/A   Clear
12:15 PM 56.1 °F - 16.7 °F 21% 30.25 in 10.0 mi WSW 5.8 mph - N/A   Unknown
12:35 PM 57.4 °F - 16.5 °F 20% 30.25 in 10.0 mi WSW 6.9 mph - N/A   Unknown
12:55 PM 57.6 °F - 16.0 °F 20% 30.23 in 10.0 mi SSW 5.8 mph - N/A   Clear
1:15 PM 58.5 °F - 16.0 °F 19% 30.22 in 10.0 mi SSW 9.2 mph - N/A   Clear
1:35 PM 58.6 °F - 15.8 °F 19% 30.21 in 10.0 mi SSW 11.5 mph 17.3 mph N/A   Clear
1:55 PM 59.0 °F - 15.8 °F 19% 30.19 in 10.0 mi SW 12.7 mph - N/A   Clear
2:15 PM 60.4 °F - 14.0 °F 16% 30.18 in 10.0 mi SSW 15.0 mph - N/A   Clear
2:35 PM 61.0 °F - 13.5 °F 16% 30.17 in 10.0 mi SSW 16.1 mph - N/A   Clear
2:55 PM 60.8 °F - 12.9 °F 15% 30.17 in 10.0 mi SSW 18.4 mph 23.0 mph N/A   Clear
3:15 PM 59.9 °F - 12.7 °F 16% 30.16 in 10.0 mi SSW 16.1 mph 23.0 mph N/A   Clear
3:35 PM 59.0 °F - 14.0 °F 17% 30.15 in 10.0 mi SSW 10.4 mph 21.9 mph N/A   Clear
3:55 PM 57.2 °F - 14.0 °F 18% 30.15 in 10.0 mi SSW 10.4 mph - N/A   Clear
4:15 PM 54.7 °F - 14.0 °F 20% 30.14 in 10.0 mi SSW 10.4 mph - N/A   Clear
4:35 PM 51.1 °F - 13.6 °F 23% 30.14 in 10.0 mi South 8.1 mph - N/A   Clear
4:55 PM 47.7 °F - 13.8 °F 26% 30.12 in 10.0 mi SSW 9.2 mph - N/A   Clear
5:15 PM 47.7 °F - 14.0 °F 26% 30.11 in 10.0 mi SSW 13.8 mph - N/A   Clear
5:35 PM 47.1 °F - 14.0 °F 26% 30.11 in 10.0 mi SSW 9.2 mph - N/A   Clear
5:55 PM 44.8 °F 39.9 °F 14.5 °F 30% 30.11 in 10.0 mi SSW 9.2 mph - N/A   Clear
6:15 PM 46.8 °F - 14.5 °F 27% 30.10 in 10.0 mi SW 12.7 mph - N/A   Clear
6:35 PM 46.6 °F - 14.7 °F 28% 30.10 in 10.0 mi SW 12.7 mph 19.6 mph N/A   Clear
6:55 PM 46.0 °F 39.3 °F 15.3 °F 29% 30.10 in 10.0 mi SW 16.1 mph 20.7 mph N/A   Clear
7:15 PM 45.9 °F 39.4 °F 15.6 °F 30% 30.09 in 10.0 mi SW 15.0 mph 20.7 mph N/A   Clear
7:35 PM 45.9 °F 39.1 °F 15.6 °F 30% 30.09 in 10.0 mi SW 16.1 mph - N/A   Clear
7:55 PM 46.0 °F 39.0 °F 15.6 °F 30% 30.08 in 10.0 mi SW 17.3 mph 23.0 mph N/A   Clear
8:15 PM 45.5 °F 38.6 °F 15.8 °F 30% 30.07 in 10.0 mi SW 16.1 mph 21.9 mph N/A   Clear
8:35 PM 45.0 °F 38.2 °F 16.0 °F 31% 30.06 in 10.0 mi SW 15.0 mph 19.6 mph N/A   Clear
8:55 PM 45.7 °F 38.6 °F 16.3 °F 31% 30.06 in 10.0 mi SW 17.3 mph 21.9 mph N/A   Clear
9:15 PM 45.9 °F 39.1 °F 16.3 °F 31% 30.05 in 10.0 mi SW 16.1 mph - N/A   Clear
9:35 PM 45.1 °F 39.1 °F 16.3 °F 32% 30.05 in 10.0 mi SW 12.7 mph 19.6 mph N/A   Clear
9:55 PM 44.2 °F 38.8 °F 16.2 °F 32% 30.05 in 10.0 mi SW 10.4 mph - N/A   Clear
10:15 PM 43.2 °F 37.4 °F 16.2 °F 34% 30.05 in 10.0 mi SW 10.4 mph - N/A   Clear
10:35 PM 41.5 °F 35.0 °F 16.5 °F 36% 30.04 in 10.0 mi SW 11.5 mph - N/A   Clear
10:55 PM 41.4 °F 33.6 °F 16.7 °F 37% 30.03 in 10.0 mi SW 15.0 mph - N/A   Clear
11:15 PM 41.0 °F 34.7 °F 16.7 °F 37% 30.02 in 10.0 mi WSW 10.4 mph 19.6 mph N/A   Clear
11:35 PM 40.1 °F 33.2 °F 17.1 °F 39% 30.01 in 10.0 mi WSW 11.5 mph - N/A   Clear
11:55 PM 38.3 °F 30.5 °F 17.6 °F 43% 30.00 in 10.0 mi WSW 12.7 mph - N/A   Clear